Location: El Centro
(32.7920°N, 115.5620°W)
Time: 03:37:27
(UTC-08:00)

Amateur Radio Satellites - All Passes

Search period start: 27 February 2015 03:07
Search period end: 28 February 2015 03:07
Location: El Centro, 32.7920°N, 115.5620°W

Satellite Date Start Highest point End Downlink Frequencies (MHz)
Time Altitude Azimuth
Gurwin Techsat 1B 27 Feb 03:15:42 03:20:07 26° 290° (WNW) 03:24:26 435.225
BEESAT 2 27 Feb 03:17:49 03:21:59 88° 60° (ENE) 03:26:04 435.950
YUBILEINY 27 Feb 03:30:36 03:39:30 84° 83° (E) 03:48:21 435.215
SRMSAT 27 Feb 03:58:55 04:02:10 15° 166° (SSE) 04:05:31 437.500
JAS-2 27 Feb 04:01:32 04:08:58 71° 101° (E) 04:16:49 435.910
JUGNU 27 Feb 04:03:55 04:08:24 22° 175° (S) 04:12:56 437.505
HORYU 2 27 Feb 04:22:57 04:25:36 15° 291° (WNW) 04:28:04 437.375
AIST 2 27 Feb 04:30:57 04:34:53 37° 247° (WSW) 04:38:42 435.215
AO-7 27 Feb 04:31:20 04:39:30 63° 290° (WNW) 04:47:35 29.400- 29.500
MOZHAYETS 4 27 Feb 04:43:44 04:47:20 22° 266° (W) 04:50:51
CUBESAT XI-V 27 Feb 04:53:39 04:57:35 28° 72° (ENE) 05:01:38 437.345
STRAND 1 27 Feb 05:00:39 05:04:33 23° 69° (ENE) 05:08:37 437.568
Cubesat XI-IV 27 Feb 05:23:17 05:28:05 34° 97° (E) 05:32:57 437.490
YUBILEINY 27 Feb 05:30:26 05:35:25 16° 278° (W) 05:39:43 435.215
CUTE-I 27 Feb 05:33:18 05:38:21 42° 98° (E) 05:43:25 437.470
PRISM 27 Feb 05:42:35 05:46:39 64° 259° (W) 05:50:47 437.425
SRMSAT 27 Feb 05:46:14 05:50:45 22° 176° (S) 05:55:18 437.500
JAS-2 27 Feb 05:48:08 05:53:31 21° 293° (WNW) 05:58:46 435.910
JUGNU 27 Feb 05:52:21 05:56:52 22° 185° (S) 06:01:22 437.505
RS-15 27 Feb 06:05:34 06:11:36 16° 28° (NNE) 06:18:19 29.354- 29.394
PCSat 27 Feb 06:24:46 06:30:08 60° 62° (ENE) 06:35:28 145.827
AO-7 27 Feb 06:29:18 06:30:56 10° 307° (NW) 06:31:53 29.400- 29.500
CUBESAT XI-V 27 Feb 06:31:20 06:35:02 22° 266° (W) 06:38:39 437.345
STRAND 1 27 Feb 06:38:57 06:43:35 34° 263° (W) 06:48:13 437.568
AIST 1 27 Feb 06:49:40 06:53:49 49° 93° (E) 06:58:04
Cubesat XI-IV 27 Feb 07:03:42 07:08:03 25° 291° (WNW) 07:12:16 437.490
CUTE-I 27 Feb 07:14:14 07:18:10 20° 292° (WNW) 07:21:53 437.470
BRITE-PL 27 Feb 07:28:57 07:32:34 24° 94° (E) 07:36:05 437.365/2234.400
SRMSAT 27 Feb 07:34:54 07:39:22 22° 186° (S) 07:43:48 437.500
JUGNU 27 Feb 07:42:07 07:45:18 14° 194° (SSW) 07:48:22 437.505
GONETS M04 27 Feb 07:43:45 07:49:49 21° 69° (ENE) 07:56:20
COMPASS 1 27 Feb 07:52:56 07:55:43 18° 93° (E) 07:58:39 437.405
GOMX 1 27 Feb 07:53:25 07:57:11 28° 95° (E) 08:00:52 467.674
AAUSAT CUBESAT 2 27 Feb 07:53:47 07:56:12 15° 93° (E) 07:58:47 437.432
HO-68 27 Feb 08:04:00 08:10:51 47° 100° (E) 08:17:45 435.675
PCSat 27 Feb 08:10:15 08:13:07 14° 255° (WSW) 08:15:39 145.827
CANX-2 27 Feb 08:10:27 08:14:35 50° 99° (E) 08:18:43 2200.000
SEEDS 27 Feb 08:13:34 08:17:32 40° 98° (E) 08:21:31 437.485
RS-15 27 Feb 08:16:13 08:27:27 57° 55° (NE) 08:39:13 29.354- 29.394
CUTE 1.7 + AOD 2 27 Feb 08:29:33 08:33:48 80° 101° (ESE) 08:38:03 437.475
UNISAT 6 27 Feb 08:29:45 08:31:32 13° 69° (ENE) 08:33:34 437.425
AIST 1 27 Feb 08:31:07 08:31:54 10° 289° (WNW) 08:32:23
CUBEBUG 2 27 Feb 08:33:37 08:35:45 14° 92° (E) 08:38:05 437.445
DOVE 4 27 Feb 08:46:07 08:50:26 86° 97° (E) 08:54:35 437.250
Oscar 11 27 Feb 08:52:13 08:56:12 36° 98° (E) 09:00:13 145.826/435.025
TIGRISAT 27 Feb 08:54:53 08:58:27 24° 72° (ENE) 09:02:02 435.000
NANOSAT C BR1 27 Feb 09:03:02 09:05:34 16° 70° (ENE) 09:08:18 145.865
ANTELSAT 27 Feb 09:05:49 09:09:49 33° 74° (ENE) 09:13:48 437.575/2403.000
BRITE-PL 27 Feb 09:07:23 09:11:04 23° 290° (WNW) 09:14:27 437.365/2234.400
DX 1 27 Feb 09:10:06 09:13:44 26° 96° (E) 09:17:25 434.975-435.025
CINEMA 3 27 Feb 09:22:29 09:26:39 67° 284° (WNW) 09:30:44 145.822/145.860
DELFI C3 27 Feb 09:23:00 09:27:05 71° 101° (E) 09:31:09 145.870
SRMSAT 27 Feb 09:24:59 09:27:56 14° 195° (SSW) 09:30:46 437.500
COMPASS 1 27 Feb 09:27:51 09:31:29 28° 287° (WNW) 09:35:04 437.405
AAUSAT CUBESAT 2 27 Feb 09:28:12 09:31:58 32° 286° (WNW) 09:35:41 437.432
ZACube-1 27 Feb 09:28:38 09:32:37 46° 99° (E) 09:36:38 437.345
FUNcube-1 27 Feb 09:28:49 09:32:47 45° 99° (E) 09:36:47 145.935
GOMX 1 27 Feb 09:32:05 09:35:10 18° 290° (WNW) 09:38:01 467.674
QB50P1 27 Feb 09:33:19 09:37:15 37° 74° (ENE) 09:41:14 145.935-145.965
ISS 27 Feb 09:33:39 09:36:48 52° 318° (NW) 09:39:58 145.825
QB50P2 27 Feb 09:35:42 09:39:43 40° 74° (ENE) 09:43:46 145.880/145.840
O/OREOS (USA 219) 27 Feb 09:37:56 09:42:27 66° 291° (WNW) 09:47:00 437.305
GONETS M04 27 Feb 09:38:49 09:47:29 68° 267° (W) 09:56:09
UWE-3 27 Feb 09:39:02 09:43:12 81° 102° (ESE) 09:47:21 435.000/436.395/437.385
UKube-1 27 Feb 09:44:01 09:48:20 66° 101° (ESE) 09:52:38 .
CANX-2 27 Feb 09:48:50 09:50:09 11° 291° (WNW) 09:51:12 2200.000
SEEDS 27 Feb 09:50:53 09:53:03 13° 290° (WNW) 09:55:00 437.485
HO-68 27 Feb 09:52:20 09:58:19 28° 294° (WNW) 10:04:08 435.675
DUCHIFAT 1 27 Feb 09:53:57 09:58:12 67° 76° (ENE) 10:02:27 145.980
HUMSAT D 27 Feb 10:01:51 10:05:54 59° 100° (E) 10:09:57 437.325/437.525
BUGSAT 1 27 Feb 10:03:18 10:07:30 64° 76° (ENE) 10:11:45 437.445
UNISAT 6 27 Feb 10:03:41 10:08:01 47° 261° (W) 10:12:16 437.425
CUBEBUG 2 27 Feb 10:08:53 10:12:38 33° 286° (WNW) 10:16:22 437.445
POLYITAN 1 27 Feb 10:09:37 10:13:56 75° 258° (WSW) 10:18:16 437.675
POPSAT HIP 1 27 Feb 10:12:08 10:16:25 71° 259° (WSW) 10:20:43 437.405
RS-15 27 Feb 10:29:15 10:39:37 37° 252° (WSW) 10:50:00 29.354- 29.394
Oscar 11 27 Feb 10:29:31 10:32:07 15° 290° (WNW) 10:34:33 145.826/435.025
AISAT 27 Feb 10:31:28 10:35:56 85° 281° (WNW) 10:40:21 437.250
TIGRISAT 27 Feb 10:31:30 10:35:09 23° 264° (W) 10:38:38 435.000
NANOSAT C BR1 27 Feb 10:37:16 10:41:12 34° 262° (W) 10:45:06 145.865
50 SAT 27 Feb 10:38:10 10:42:05 65° 284° (WNW) 10:45:59 437.505
VELOX 1 27 Feb 10:42:53 10:47:18 64° 284° (WNW) 10:51:40 145.980
ANTELSAT 27 Feb 10:43:45 10:46:44 17° 266° (W) 10:49:30 437.575/2403.000
ESTCUBE 1 27 Feb 10:44:08 10:48:38 58° 100° (E) 10:53:06 437.505/2401.250
DX 1 27 Feb 10:46:31 10:49:53 21° 289° (WNW) 10:53:07 434.975-435.025
CUBEBUG 1 27 Feb 10:48:13 10:52:34 58° 100° (E) 10:56:54 437.445
CUSAT 1 27 Feb 10:49:46 10:52:05 27° 79° (ENE) 10:54:25 437.405
ZACube-1 27 Feb 11:07:21 11:08:40 11° 291° (WNW) 11:09:43 437.345
FUNcube-1 27 Feb 11:07:26 11:08:48 11° 291° (WNW) 11:09:56 145.935
QB50P1 27 Feb 11:10:53 11:13:19 14° 268° (W) 11:15:33 145.935-145.965
QB50P2 27 Feb 11:13:43 11:15:52 13° 268° (W) 11:17:46 145.880/145.840
SO-50 27 Feb 11:22:40 11:27:38 81° 62° (ENE) 11:32:32 436.795
SPROUT 27 Feb 11:35:16 11:39:24 46° 99° (E) 11:43:31 437.525
DANDE 27 Feb 11:41:00 11:43:32 38° 265° (W) 11:45:58 436.750
TISAT 1 27 Feb 11:52:25 11:56:39 69° 101° (E) 12:00:49 437.305
ITAMSAT 1 27 Feb 12:04:18 12:06:54 14° 66° (ENE) 12:09:46 435.822/435.867
Oscar 19 27 Feb 12:11:32 12:16:32 55° 74° (ENE) 12:21:34 437.125/150
ESTCUBE 1 27 Feb 12:23:38 12:25:04 11° 293° (WNW) 12:26:13 437.505/2401.250
CUBEBUG 1 27 Feb 12:27:46 12:28:30 10° 293° (WNW) 12:28:57 437.445
Gurwin Techsat 1B 27 Feb 12:52:25 12:57:03 32° 71° (ENE) 13:01:46 435.225
SWISSCUBE 27 Feb 13:00:26 13:05:11 58° 100° (E) 13:09:55 437.505
BEESAT 27 Feb 13:09:44 13:14:31 68° 102° (ESE) 13:19:17 436.000
SPROUT 27 Feb 13:13:20 13:15:08 12° 291° (WNW) 13:16:42 437.525
ITUPSAT 1 27 Feb 13:34:47 13:39:35 65° 284° (WNW) 13:44:20 437.325
AO-7 27 Feb 13:34:57 13:40:57 24° 61° (ENE) 13:47:17 29.400- 29.500
HORYU 2 27 Feb 13:39:54 13:43:15 22° 71° (ENE) 13:46:42 437.375
ITAMSAT 1 27 Feb 13:40:51 13:45:58 58° 259° (W) 13:51:08 435.822/435.867
Oscar 19 27 Feb 13:53:40 13:56:18 13° 269° (W) 13:58:37 437.125/150
JAS-2 27 Feb 14:12:54 14:15:36 14° 64° (ENE) 14:18:41 435.910
KKS-1 27 Feb 14:19:30 14:23:56 72° 102° (ESE) 14:28:20 437.445
Gurwin Techsat 1B 27 Feb 14:32:41 14:37:04 25° 265° (W) 14:41:20 435.225
YUBILEINY 27 Feb 14:33:05 14:38:11 18° 83° (E) 14:43:51 435.215
STARS 27 Feb 14:34:12 14:38:34 66° 101° (E) 14:42:53 437.465
SWISSCUBE 27 Feb 14:40:31 14:42:37 12° 293° (WNW) 14:44:27 437.505
BEESAT 27 Feb 14:50:44 14:51:53 11° 294° (WNW) 14:52:42 436.000
HORYU 2 27 Feb 15:16:01 15:19:48 26° 264° (W) 15:23:31 437.375
AO-7 27 Feb 15:24:50 15:33:10 69° 256° (WSW) 15:41:28 29.400- 29.500
JAS-2 27 Feb 15:54:56 16:00:07 59° 260° (W) 16:05:46 435.910
ISS 27 Feb 16:05:06 16:07:35 20° 35° (NE) 16:10:06 145.825
M-CUBED/EXP-1 PRIME 27 Feb 16:06:44 16:10:59 78° 107° (ESE) 16:15:33 437.505
AUBIESAT-1 27 Feb 16:11:43 16:15:59 80° 107° (ESE) 16:20:33 437.475
YUBILEINY 27 Feb 16:25:31 16:34:13 75° 278° (W) 16:43:00 435.215
Cubesat XI-IV 27 Feb 16:40:59 16:45:49 37° 72° (ENE) 16:50:45 437.490
MOZHAYETS 4 27 Feb 16:42:08 16:46:45 68° 284° (WNW) 16:51:20
VERMONT LUNAR 27 Feb 16:44:10 16:46:40 19° 143° (SE) 16:49:14 437.305
BEESAT 3 27 Feb 16:46:51 16:50:26 32° 113° (ESE) 16:54:08 437.485
CUTE-I 27 Feb 16:50:45 16:55:49 45° 73° (ENE) 17:00:56 437.470
BEESAT 2 27 Feb 17:08:06 17:12:02 49° 115° (ESE) 17:16:03 435.950
STRAND 1 27 Feb 17:18:20 17:18:47 10° 89° (E) 17:19:41 437.568
PRISM 27 Feb 17:30:13 17:33:40 25° 96° (E) 17:37:11 437.425
ISS 27 Feb 17:41:09 17:44:02 29° 229° (SW) 17:46:54 145.825
PHONESAT 2.4 27 Feb 18:00:40 18:04:04 38° 147° (SSE) 18:07:29 2401.200-2431.200
VERMONT LUNAR 27 Feb 18:20:53 18:24:22 68° 335° (NNW) 18:27:52 437.305
Cubesat XI-IV 27 Feb 18:21:49 18:26:02 22° 266° (W) 18:30:06 437.490
AIST 2 27 Feb 18:24:25 18:28:35 59° 300° (WNW) 18:32:50 435.215
BEESAT 3 27 Feb 18:25:40 18:28:38 18° 308° (NW) 18:31:30 437.485
HO-68 27 Feb 18:29:15 18:34:22 23° 64° (ENE) 18:39:46 435.675
YUBILEINY 27 Feb 18:30:23 18:32:54 11° 299° (WNW) 18:34:34 435.215
CUBESAT XI-V 27 Feb 18:31:27 18:36:08 63° 284° (WNW) 18:40:45 437.345
CUTE-I 27 Feb 18:32:28 18:36:10 18° 267° (W) 18:39:38 437.470
BRITE-PL 27 Feb 18:34:25 18:38:45 24° 71° (ENE) 18:43:10 437.365/2234.400
AIST 1 27 Feb 18:38:48 18:43:11 64° 266° (W) 18:47:31
BEESAT 2 27 Feb 18:48:27 18:50:34 13° 311° (NW) 18:52:30 435.950
STRAND 1 27 Feb 18:53:27 18:58:35 70° 284° (WNW) 19:03:41 437.568
GOMX 1 27 Feb 18:56:28 19:00:48 25° 71° (ENE) 19:05:09 467.674
CANX-2 27 Feb 19:00:04 19:03:10 21° 72° (ENE) 19:06:22 2200.000
SEEDS 27 Feb 19:02:47 19:05:21 17° 71° (ENE) 19:08:05 437.485
PRISM 27 Feb 19:05:48 19:09:04 21° 289° (WNW) 19:12:13 437.425
CUTE 1.7 + AOD 2 27 Feb 19:18:31 19:22:13 31° 73° (ENE) 19:25:58 437.475
PCSat 27 Feb 19:21:37 19:24:11 14° 105° (ESE) 19:27:06 145.827
PHONESAT 2.4 27 Feb 19:39:03 19:42:31 42° 341° (NNW) 19:46:00 2401.200-2431.200
Oscar 11 27 Feb 19:43:53 19:46:36 17° 70° (ENE) 19:49:28 145.826/435.025
DOVE 4 27 Feb 19:46:19 19:51:26 55° 76° (ENE) 19:56:24 437.250
O/OREOS (USA 219) 27 Feb 19:52:22 19:56:58 73° 252° (WSW) 20:01:30 437.305
VERMONT LUNAR 27 Feb 19:59:45 20:02:41 24° 352° (N) 20:05:36 437.305
DX 1 27 Feb 20:02:54 20:05:07 14° 69° (ENE) 20:07:32 434.975-435.025
DELFI C3 27 Feb 20:07:24 20:10:35 24° 73° (ENE) 20:13:52 145.870
BRITE-PL 27 Feb 20:11:40 20:17:02 41° 263° (W) 20:22:16 437.365/2234.400
COMPASS 1 27 Feb 20:14:15 20:18:24 76° 259° (W) 20:22:33 437.405
AAUSAT CUBESAT 2 27 Feb 20:14:19 20:18:27 88° 258° (WSW) 20:22:36 437.432
HO-68 27 Feb 20:14:38 20:21:39 59° 258° (WSW) 20:28:42 435.675
CINEMA 3 27 Feb 20:19:06 20:23:58 65° 76° (ENE) 20:28:40 145.822/145.860
ZACube-1 27 Feb 20:20:56 20:24:21 23° 72° (ENE) 20:27:50 437.345
FUNcube-1 27 Feb 20:20:58 20:24:20 22° 72° (ENE) 20:27:47 145.935
UWE-3 27 Feb 20:31:50 20:36:02 38° 74° (ENE) 20:40:09 435.000/436.395/437.385
GOMX 1 27 Feb 20:33:47 20:38:45 34° 263° (W) 20:43:34 467.674
UKube-1 27 Feb 20:34:56 20:38:45 31° 72° (ENE) 20:42:39 .
CANX-2 27 Feb 20:35:29 20:39:00 25° 265° (W) 20:42:26 2200.000
SEEDS 27 Feb 20:37:14 20:40:59 31° 263° (W) 20:44:41 437.485
GONETS M04 27 Feb 20:39:17 20:46:10 28° 86° (E) 20:53:20
HUMSAT D 27 Feb 20:50:07 20:53:30 24° 72° (ENE) 20:56:56 437.325/437.525
CUTE 1.7 + AOD 2 27 Feb 20:55:30 20:58:15 16° 267° (W) 21:00:49 437.475
PCSat 27 Feb 21:01:49 21:07:10 59° 298° (WNW) 21:12:32 145.827
CUBEBUG 2 27 Feb 21:01:57 21:06:35 75° 259° (WSW) 21:11:04 437.445
PHONESAT 2.4 27 Feb 21:18:33 21:21:32 23° 358° (N) 21:24:31 2401.200-2431.200
Oscar 11 27 Feb 21:18:43 21:22:35 32° 263° (W) 21:26:25 145.826/435.025
50 SAT 27 Feb 21:20:38 21:24:21 38° 74° (ENE) 21:28:04 437.505
AISAT 27 Feb 21:24:58 21:29:17 49° 75° (ENE) 21:33:40 437.250
DOVE 4 27 Feb 21:26:38 21:29:30 14° 269° (W) 21:32:00 437.250
VELOX 1 27 Feb 21:35:58 21:40:24 65° 76° (ENE) 21:44:51 145.980
DX 1 27 Feb 21:36:53 21:41:03 41° 261° (W) 21:45:13 434.975-435.025
VERMONT LUNAR 27 Feb 21:38:18 21:41:15 25° 9° (N) 21:44:11 437.305
ESTCUBE 1 27 Feb 21:39:49 21:43:45 31° 72° (ENE) 21:47:46 437.505/2401.250
CUBEBUG 1 27 Feb 21:40:26 21:44:11 28° 72° (ENE) 21:48:02 437.445
DELFI C3 27 Feb 21:42:46 21:45:47 19° 266° (W) 21:48:40 145.870
DUCHIFAT 1 27 Feb 21:44:58 21:47:17 15° 92° (E) 21:49:48 145.980
BUGSAT 1 27 Feb 21:52:13 21:54:01 13° 91° (E) 21:56:03 437.445
FUNcube-1 27 Feb 21:56:53 22:00:36 25° 264° (W) 22:04:11 145.935
ZACube-1 27 Feb 21:56:57 22:00:40 25° 264° (W) 22:04:14 437.345
UNISAT 6 27 Feb 22:00:02 22:04:10 47° 99° (E) 22:08:22 437.425
POLYITAN 1 27 Feb 22:00:26 22:03:51 24° 95° (E) 22:07:20 437.675
POPSAT HIP 1 27 Feb 22:02:35 22:06:04 25° 96° (E) 22:09:36 437.405
UWE-3 27 Feb 22:10:01 22:12:44 15° 267° (W) 22:15:12 435.000/436.395/437.385
UKube-1 27 Feb 22:12:01 22:15:01 17° 266° (W) 22:17:50 .
SPROUT 27 Feb 22:25:53 22:29:06 21° 71° (ENE) 22:32:27 437.525
HUMSAT D 27 Feb 22:25:57 22:29:15 21° 265° (W) 22:32:25 437.325/437.525
NANOSAT C BR1 27 Feb 22:26:33 22:30:41 51° 100° (E) 22:34:46 145.865
TIGRISAT 27 Feb 22:26:38 22:30:55 82° 282° (WNW) 22:35:14 435.000
GONETS M04 27 Feb 22:34:15 22:42:39 51° 282° (WNW) 22:51:00
RS-15 27 Feb 22:34:16 22:44:41 55° 111° (ESE) 22:55:15 29.354- 29.394
ANTELSAT 27 Feb 22:38:29 22:42:41 56° 284° (WNW) 22:46:56 437.575/2403.000
TISAT 1 27 Feb 22:40:48 22:44:27 29° 72° (ENE) 22:48:11 437.305
PHONESAT 2.4 27 Feb 22:57:17 23:00:36 33° 15° (NNE) 23:03:56 2401.200-2431.200
50 SAT 27 Feb 22:57:57 22:59:34 12° 268° (W) 23:00:58 437.505
QB50P1 27 Feb 22:58:30 23:02:41 60° 284° (WNW) 23:06:50 145.935-145.965
QB50P2 27 Feb 23:01:13 23:05:22 54° 285° (WNW) 23:09:28 145.880/145.840
DANDE 27 Feb 23:02:58 23:09:13 29° 95° (E) 23:14:32 436.750
AISAT 27 Feb 23:04:28 23:06:15 12° 269° (W) 23:07:43 437.250
VERMONT LUNAR 27 Feb 23:16:04 23:19:32 72° 24° (NNE) 23:22:58 437.305
CUBEBUG 1 27 Feb 23:17:14 23:20:35 20° 266° (W) 23:23:50 437.445
ESTCUBE 1 27 Feb 23:17:26 23:20:43 19° 266° (W) 23:23:51 437.505/2401.250
DUCHIFAT 1 27 Feb 23:19:28 23:23:17 33° 287° (WNW) 23:27:03 145.980
BUGSAT 1 27 Feb 23:25:52 23:29:45 37° 286° (WNW) 23:33:31 437.445
POLYITAN 1 27 Feb 23:36:26 23:39:41 21° 289° (WNW) 23:42:49 437.675
POPSAT HIP 1 27 Feb 23:38:40 23:41:51 20° 289° (WNW) 23:44:54 437.405
UNISAT 6 27 Feb 23:38:56 23:40:38 12° 291° (WNW) 23:42:07 437.425
CUSAT 1 27 Feb 23:50:28 23:57:45 89° 101° (E) 00:03:19 437.405
SPROUT 28 Feb 00:01:26 00:05:06 26° 264° (W) 00:08:43 437.525
SWISSCUBE 28 Feb 00:02:51 00:07:15 40° 73° (ENE) 00:11:45 437.505
NANOSAT C BR1 28 Feb 00:05:09 00:06:09 11° 292° (WNW) 00:06:53 145.865
BEESAT 28 Feb 00:11:57 00:16:29 46° 74° (ENE) 00:21:04 436.000
TISAT 1 28 Feb 00:17:14 00:20:19 18° 266° (W) 00:23:15 437.305
Oscar 19 28 Feb 00:28:04 00:32:22 28° 96° (E) 00:36:46 437.125/150
PHONESAT 2.4 28 Feb 00:35:39 00:39:12 57° 210° (SSW) 00:42:43 2401.200-2431.200
ITUPSAT 1 28 Feb 00:37:03 00:41:49 87° 80° (E) 00:46:39 437.325
DANDE 28 Feb 00:45:27 00:52:32 40° 281° (W) 00:58:07 436.750
RS-15 28 Feb 00:47:28 00:57:28 38° 312° (NW) 01:07:23 29.354- 29.394
VERMONT LUNAR 28 Feb 00:54:50 00:57:12 17° 217° (SW) 00:59:30 437.305
KKS-1 28 Feb 01:13:29 01:17:36 37° 73° (ENE) 01:21:45 437.445
Gurwin Techsat 1B 28 Feb 01:13:49 01:17:19 18° 93° (E) 01:21:02 435.225
STARS 28 Feb 01:27:06 01:31:04 33° 73° (ENE) 01:35:04 437.465
SO-50 28 Feb 01:32:53 01:37:23 75° 117° (ESE) 01:42:05 436.795
CUSAT 1 28 Feb 01:39:27 01:40:50 10° 288° (WNW) 01:41:39 437.405
SWISSCUBE 28 Feb 01:42:14 01:45:20 17° 267° (W) 01:48:15 437.505
BEESAT 28 Feb 01:51:59 01:54:39 14° 268° (W) 01:57:01 436.000
ITAMSAT 1 28 Feb 01:58:10 02:03:23 74° 101° (E) 02:08:35 435.822/435.867
JUGNU 28 Feb 02:01:39 02:04:59 15° 167° (SSE) 02:08:26 437.505
Oscar 19 28 Feb 02:07:21 02:11:40 27° 289° (WNW) 02:15:53 437.125/150
YUBILEINY 28 Feb 02:41:27 02:49:47 45° 77° (ENE) 02:58:10 435.215
BEESAT 3 28 Feb 02:47:35 02:51:42 71° 61° (ENE) 02:55:45 437.485
AIST 2 28 Feb 02:50:59 02:54:25 24° 54° (NE) 02:57:51 435.215
KKS-1 28 Feb 02:51:37 02:54:24 16° 267° (W) 02:57:01 437.445
Gurwin Techsat 1B 28 Feb 02:52:30 02:57:32 44° 287° (WNW) 03:02:31 435.225
M-CUBED/EXP-1 PRIME 28 Feb 02:52:55 02:56:03 42° 71° (ENE) 02:59:13 437.505
AUBIESAT-1 28 Feb 02:57:27 03:00:34 42° 71° (ENE) 03:03:44 437.475
